Location: Izdebnik
(49.8699°N, 19.7619°E)
Time: 22:24:52
(UTC+01:00)

ISS - Visible Passes

Search period start: 19 January 2018 00:00
Search period end: 29 January 2018 00:00
Orbit: 402 x 407 km, 51.6° (Epoch: 20 January)

Date Brightness Start Highest point End Pass type
(mag) Time Alt. Az. Time Alt. Az. Time Alt. Az.
25 Jan -1.3 18:13:00 10° SSE 18:13:26 11° SSE 18:13:26 11° SSE visible
26 Jan -1.4 18:55:08 10° SW 18:56:11 18° SSW 18:56:11 18° SSW visible
27 Jan -2.4 18:03:14 10° SSW 18:05:55 24° SE 18:06:11 23° SE visible
27 Jan -0.3 19:38:50 10° WSW 19:38:51 10° WSW 19:38:51 10° WSW visible
28 Jan -1.7 17:11:46 10° S 17:13:44 15° SE 17:15:42 10° ESE visible
28 Jan -2.7 18:46:30 10° WSW 18:48:46 40° SW 18:48:46 40° SW visible
